Regional Weather Roundup
Issued by NWS

Home | Current Version | Previous Version | Graphics & Text | Print | Product List | Glossary On
Versions: 1 2 3 4 5 6 7 8 9 10 11 12 13 14 15 16 17 18 19 20 21 22 23 24 25 26 27 28 29 30 31 32 33 34 35 36 37 38 39 40 41 42 43 44 45 46 47 48 49 50
000
ASUS43 KOAX 301010
RWRNE

WEATHER ROUNDUP FOR NEBRASKA
NATIONAL WEATHER SERVICE OMAHA NE
500 AM CDT SAT APR 30 2016

NOTES: SATELLITE DATA IS BEING USED TO AUGMENT CLOUD COVER ABOVE
       12000 FEET.
       "FAIR" INDICATES FEW OR NO CLOUDS BELOW 12,000 FEET WITH NO
       SIGNIFICANT WEATHER AND/OR OBSTRUCTIONS TO VISIBILITY.

  * THESE STATIONS DO NOT REPORT WEATHER SUCH AS RAIN...SNOW OR FOG.

NEZ001>004-019>022-054>056-301100-
NEBRASKA PANHANDLE

CITY           SKY/WX    TMP DP  RH WIND       PRES   REMARKS
SCOTTSBLUFF    LGT SNOW  33  31  92 NW7       29.92S FOG     WCI  27
ALLIANCE       LGT SNOW  32  32 100 N10       29.89S VSB 1   WCI  24
CHADRON        LGT RAIN  37  35  92 NE12      29.95F WCI  29
KIMBALL        LGT SNOW  31  31 100 N10       29.87S WCI  22
SIDNEY         LGT SNOW  32  30  92 N15       29.86S FOG     WCI  22
$$

NEZ057>060-069>072-079>082-301100-
SOUTHWEST NEBRASKA

CITY           SKY/WX    TMP DP  RH WIND       PRES   REMARKS
NORTH PLATTE   LGT SNOW  33  32  96 N8        29.82S FOG     WCI  26
IMPERIAL       CLOUDY    33  32  96 N12       29.82F WCI  24
LEXINGTON      DRIZZLE   37  35  90 NE10      29.79R WCI  30
MCCOOK         MIX PCPN  35  34  96 NW15      29.79F FOG     WCI  25
OGALLALA       LGT RAIN  33  32  94 N12       29.84F WCI  25
$$

NEZ005>010-023>029-035>040-094-301100-
NORTH CENTRAL NEBRASKA

CITY           SKY/WX    TMP DP  RH WIND       PRES   REMARKS
VALENTINE      LGT RAIN  41  38  89 NE16G23   29.90S
AINSWORTH      LGT RAIN  39  38  94 E18G31    29.88S WCI  30
BROKEN BOW     LGT SNOW  34  33  96 N6        29.81F FOG     WCI  29
O`NEILL        RAIN      41  39  93 NE12      29.86R
ORD            RAIN      40  39  97 NE6       29.81F FOG
THEDFORD       LGT SNOW  34  33  97 NE7       29.86S WCI  28
$$

NEZ041-046>049-061>064-073>077-083>087-301100-
SOUTH CENTRAL NEBRASKA

CITY           SKY/WX    TMP DP  RH WIND       PRES   REMARKS
GRAND ISLAND   RAIN      42  40  92 NE9       29.77F FOG
AURORA         RAIN      42  42  99 NE14      29.74F
HASTINGS       CLOUDY    42  40  92 NE14      29.74F
HEBRON         LGT RAIN  45  44  97 NE6       29.71S
HOLDREGE       CLOUDY    40  39  95 N13       29.75F WCI  33
KEARNEY *      CLOUDY    41  37  87 N13       29.76F
YORK           HVY RAIN  43  43 100 NE12      29.75F
$$

NEZ011>018-030>034-042>045-301100-
NORTHEAST NEBRASKA

CITY           SKY/WX    TMP DP  RH WIND       PRES   REMARKS
NORFOLK        LGT RAIN  42  39  89 E16       29.81R FOG
ALBION         HVY RAIN  41  39  93 E9G16     29.81S
BLAIR          LGT RAIN  44  43  95 NE20G28   29.75S
COLUMBUS *     CLOUDY    43  36  75 NE13G18   29.78F
FREMONT        RAIN      44  43  99 NE16G25   29.77F
TEKAMAH        HVY RAIN  44  42  93 NE20      29.80F FOG
WAYNE          LGT RAIN  43  40  91 E24       29.82F
$$

NEZ050>053-065>068-078-088>093-301100-
SOUTHEAST NEBRASKA

CITY           SKY/WX    TMP DP  RH WIND       PRES   REMARKS
LINCOLN        RAIN      46  44  93 NE14      29.74F FOG
OMAHA EPPLEY   LGT RAIN  46  43  89 E14G26    29.77S
BEATRICE       RAIN      46  45  96 E10       29.69S
FALLS CITY     LGT RAIN  50  48  93 E16       29.66F FOG
NEBRASKA CITY  RAIN      46  46 100 E16G23    29.71F
PLATTSMOUTH    RAIN      46  45  97 E16G29    29.73S
$$

NEZ044-045-051>053-067-301100-
OMAHA AREA

CITY           SKY/WX    TMP DP  RH WIND       PRES   REMARKS
OMAHA EPPLEY   LGT RAIN  46  43  89 E14G26    29.77S
BLAIR          LGT RAIN  44  43  95 NE20G28   29.75S
FREMONT        RAIN      44  43  99 NE16G25   29.77F
MILLARD        DRIZZLE   46  44  91 E7G16     29.74F
OFFUTT AFB     LGT RAIN  46  45  97 NE17G26   29.74F
PLATTSMOUTH    RAIN      46  45  97 E16G29    29.73S
WAHOO          LGT RAIN  45  43  93 NE16      29.75F
$$



USA.gov is the U.S. government's official web portal to all federal, state and local government web resources and services.